TimeCST,TemperatureF,Dew PointF,Humidity,Sea Level PressureIn,VisibilityMPH,Wind Direction,Wind SpeedMPH,Gust SpeedMPH,PrecipitationIn,Events,Conditions,WindDirDegrees,DateUTC
12:15 AM,60.8,41.0,48,29.83,10.0,North,20.7,31.1,N/A,,Clear,350,2013-03-05 06:15:00
12:35 AM,57.2,41.0,55,29.85,10.0,NNW,16.1,31.1,N/A,,Clear,340,2013-03-05 06:35:00
12:55 AM,53.6,41.0,62,29.89,10.0,North,18.4,29.9,N/A,,Clear,350,2013-03-05 06:55:00
1:15 AM,51.8,37.4,58,29.93,10.0,NNW,17.3,34.5,N/A,,Clear,340,2013-03-05 07:15:00
1:55 AM,50.0,37.4,62,30.00,10.0,NNW,18.4,31.1,N/A,,Clear,340,2013-03-05 07:55:00
2:15 AM,50.0,35.6,58,30.01,10.0,North,20.7,35.7,N/A,,Clear,350,2013-03-05 08:15:00
2:35 AM,50.0,35.6,58,30.01,10.0,North,21.9,36.8,N/A,,Clear,360,2013-03-05 08:35:00
2:55 AM,50.0,35.6,58,30.06,10.0,North,17.3,28.8,N/A,,Clear,360,2013-03-05 08:55:00
3:15 AM,50.0,35.6,58,30.11,10.0,NNW,15.0,28.8,N/A,,Clear,340,2013-03-05 09:15:00
3:35 AM,50.0,32.0,50,30.10,10.0,North,19.6,34.5,N/A,,Clear,360,2013-03-05 09:35:00
3:55 AM,50.0,32.0,50,30.13,10.0,North,24.2,31.1,N/A,,Clear,360,2013-03-05 09:55:00
4:15 AM,50.0,32.0,50,30.14,10.0,North,15.0,29.9,N/A,,Clear,350,2013-03-05 10:15:00
4:35 AM,48.2,32.0,54,30.16,10.0,North,16.1,26.5,N/A,,Clear,350,2013-03-05 10:35:00
4:55 AM,48.2,32.0,54,30.16,10.0,North,17.3,27.6,N/A,,Clear,350,2013-03-05 10:55:00
5:15 AM,46.4,32.0,57,30.16,10.0,North,20.7,28.8,N/A,,Clear,360,2013-03-05 11:15:00
5:35 AM,46.4,32.0,57,30.18,10.0,North,13.8,24.2,N/A,,Clear,360,2013-03-05 11:35:00
7:50 AM,44.6,28.4,53,30.28,10.0,NNW,17.3,23.0,N/A,,Clear,340,2013-03-05 13:50:00
8:52 AM,-9999,-9999,N/A,30.31,10.0,NNW,17.3,34.5,N/A,,Clear,340,2013-03-05 14:52:00
9:52 AM,48.2,17.6,30,30.34,10.0,NNW,11.5,27.6,N/A,,Clear,330,2013-03-05 15:52:00
10:52 AM,50.0,17.6,28,30.37,10.0,NNW,11.5,27.6,N/A,,Clear,330,2013-03-05 16:52:00
11:52 AM,51.8,15.8,24,30.38,10.0,NNW,11.5,29.9,N/A,,Clear,330,2013-03-05 17:52:00
12:52 PM,51.8,15.8,24,30.38,10.0,NNW,11.5,29.9,N/A,,Clear,330,2013-03-05 18:52:00
1:50 PM,55.4,14.0,20,30.35,10.0,NNW,12.7,20.7,N/A,,Clear,330,2013-03-05 19:50:00
2:50 PM,55.4,12.2,18,30.33,10.0,NW,15.0,21.9,N/A,,Clear,310,2013-03-05 20:50:00
3:53 PM,55.4,10.4,17,30.33,10.0,NW,10.4,18.4,N/A,,Clear,310,2013-03-05 21:53:00
4:52 PM,55.4,12.2,18,30.32,10.0,NNW,11.5,18.4,N/A,,Clear,330,2013-03-05 22:52:00
5:51 PM,55.4,12.2,18,30.33,10.0,NNW,11.5,17.3,N/A,,Clear,340,2013-03-05 23:51:00
8:15 PM,50.0,15.8,26,30.37,10.0,NNW,6.9,-,N/A,,Clear,330,2013-03-06 02:15:00
8:35 PM,50.0,15.8,26,30.37,10.0,NNW,6.9,-,N/A,,Clear,340,2013-03-06 02:35:00
8:55 PM,50.0,17.6,28,30.37,10.0,NNW,5.8,-,N/A,,Clear,330,2013-03-06 02:55:00
9:15 PM,50.0,17.6,28,30.38,10.0,NNW,4.6,-,N/A,,Clear,340,2013-03-06 03:15:00
9:35 PM,50.0,17.6,28,30.38,10.0,NNW,3.5,-,N/A,,Clear,330,2013-03-06 03:35:00
9:55 PM,48.2,17.6,30,30.39,10.0,NW,4.6,-,N/A,,Clear,320,2013-03-06 03:55:00
10:15 PM,48.2,17.6,30,30.39,10.0,NNW,3.5,-,N/A,,Clear,340,2013-03-06 04:15:00
10:35 PM,46.4,17.6,32,30.39,10.0,North,6.9,-,N/A,,Clear,360,2013-03-06 04:35:00
10:55 PM,44.6,19.4,37,30.39,10.0,North,5.8,-,N/A,,Clear,360,2013-03-06 04:55:00
11:15 PM,44.6,19.4,37,30.39,10.0,North,5.8,-,N/A,,Clear,360,2013-03-06 05:15:00
11:35 PM,44.6,19.4,37,30.39,10.0,North,4.6,-,N/A,,Clear,350,2013-03-06 05:35:00
11:55 PM,44.6,19.4,37,30.40,10.0,North,5.8,-,N/A,,Clear,350,2013-03-06 05:55:00